OPS 4682 DEB, 38415

Orbit data source: Space-Track

OPS 4682 DEB, 38415 is space debris in LEO originally from a launch on Sat, 03 Apr 1965 UTC launched from the Air Force Western Test Range (AFWTR). Debris objects in space refer to the collection of defunct objects orbiting the Earth. Examples of debris include non-operational satellites, rocket bodies, and fragments generated from explosions, collisions, or faulty payload assembly.

Loading next visibility...
Identifier
38415, 1965-027DU
Orbit
LEO
Country
Flag of USUS
Related business
Manufacturer
Unknown
Mission
Spacecraft
Bus & Motor
Unknown
Mass
Unknown
Launch date (UTC)
1965-04-03 (61 years ago)
Launch vehicle
Unknown
Launch site
Air Force Western Test Range (AFWTR)
Object type
Payload
Rocket body
Debris
Shape & HBR
Unknown shape, 0.1 m
Radar Cross Section
Small (<0.1 m²)

Expand to show TLE details & history
Last TLE update: 12 hours ago

TLE from 12 hours ago
0 OPS 4682 DEB
1 38415U 65027DU  26104.18736096  .00001147  00000-0  36551-2 0  9999
2 38415  90.2511  13.0427 0028397 287.3604  72.4414 13.02372129606607
Epoch: 2026-04-14T04:29Z
TLE epoch observation values (Epoch: 2026-04-14T04:29:47.986Z)
Latitude
-0.00007°
Longitude
103.22555°
Altitude
1,249.211 km
Speed
7.234 km/s
True Right ascension
00h 52m 10s
True Declination
0° 00' 00"
Sunlit
Object was in daylight at epoch
Visualization orbit readout
Latitude
Unknown
Longitude
Unknown
Altitude
Unknown
Speed
Unknown
Apparent Right ascension
Unknown
Apparent Declination
Unknown
Sunlit
N/A
Visualization observer readout
Local Sidereal Time
22:57:57
Azimuth
Unknown
Elevation
Unknown
Doppler factor
Unknown
Orbital elements
Apogee altitude
1,271.591 km
Perigee altitude
1,228.269 km
Semi-major axis
7,628.067 km
Eccentricity
0.00284
Inclination
90.2511°
RAAN
13.0427°
Arg. of periapsis
287.3604°
True anomaly
72.75198°
Mean anomaly
72.4414°
Eccentric anomaly
72.59665°
Mean motion
3.25778 °/min
Orbital period
110.5 mins
BSTAR
0.0036551
Loading maneuver chart data...
Computing Atmospheric mass density...
Loading historical data...
Loading historical data...
Loading historical data...
Loading historical data...
Loading historical data...
Loading historical data...
Loading historical data...

Documentation

Showing up to 5 results
|